Regional Weather Roundup
Issued by NWS Cleveland, OH

Home | Current Version | Previous Version | Text Only | Print | Product List | Glossary Off
Versions: 1 2 3 4 5 6 7 8 9 10 11 12 13 14 15 16 17 18 19 20 21 22 23 24 25 26 27 28 29 30 31 32 33 34 35 36 37 38 39 40 41 42 43 44 45 46 47 48 49 50

429
ASUS41 KCLE 270810
RWRCLE
OHIO REGIONAL WEATHER ROUNDUP
NATIONAL WEATHER SERVICE CLEVELAND, OH
400 AM EDT FRI MAY 27 2016

NOTE: "FAIR" INDICATES FEW OR NO CLOUDS BELOW 12,000 FEET WITH NO
SIGNIFICANT WEATHER AND/OR OBSTRUCTIONS TO VISIBILITY.

OHZ001>008-015>018-024>027-034-035-043-044-270900-
   NORTHWEST OHIO

CITY           SKY/WX    TMP DP  RH WIND       PRES   REMARKS
DEFIANCE       MOCLDY    65  60  84 S5        29.97R
FINDLAY        PTCLDY    64  58  80 S9        29.98R
TOLEDO EXPRESS CLEAR     65  62  90 S8        29.96R
TOLEDO EXEC    CLOUDY    67  61  81 SW5       29.97R
LIMA           MOCLDY    65  61  87 S10       30.00R
$$

OHZ009>014-019>023-028>033-038-089-270900-
   NORTHEAST OHIO

CITY           SKY/WX    TMP DP  RH WIND       PRES   REMARKS
CLE-HOPKINS    MOCLDY    71  65  81 S9        30.01R
CLE-LAKEFRONT  CLEAR     72  65  78 S10       29.97S
CUY CO. ARPT   NOT AVBL
LORAIN-ELYRIA  PTCLDY    67  61  81 SW9       29.99S
ASHTABULA      CLEAR     69  66  90 S7        30.00F
AKRON-CANTON   PTCLDY    67  64  90 S7        30.02S
WOOSTER        CLEAR     66  64  93 SW6       30.02S
MANSFIELD      MOCLDY    65  62  90 S9        30.02S
YOUNGSTOWN     MOCLDY    68  64  87 S7        30.02F
$$

OHZ042-051>053-060>062-070>072-077>081-270900-
  SOUTHWEST OHIO

CITY           SKY/WX    TMP DP  RH WIND       PRES   REMARKS
CINC-COVINGTON MOCLDY    62  61  96 S6        30.03S
CINC-LUNKEN    FOG       61  61 100 CALM      30.03F VSB 1/2
HAMILTON       CLOUDY    64  62  93 CALM      30.03S
DAYTON         CLOUDY    64  62  93 SW9       30.03S
WRIGHT-PAT AFB CLOUDY    63  63 100 S2        30.02S
DAYTON GENERAL PTCLDY    64  61  90 S5        30.02R
WILMINGTON     CLOUDY    64  62  93 S9        30.03S
$$

OHZ036-037-039>041-045>050-054>059-063>069-073>076-082>088-270900-
  CENTRAL AND SOUTHEAST OHIO

CITY           SKY/WX    TMP DP  RH WIND       PRES   REMARKS
COLUMBUS       MOCLDY    66  63  90 S3        30.03R
OSU AIRPORT    NOT AVBL
BOLTON FIELD   MOCLDY    64  62  94 S6        30.04R
RICKENBACK AFB MOCLDY    65  61  87 S6        30.03S
NEWARK         PTCLDY    63  61  93 CALM      30.03S
MARION         CLOUDY    65  62  90 S9        30.02R
LANCASTER      PTCLDY    62  60  93 CALM      30.04R
ZANESVILLE     CLOUDY    68  64  87 CALM      30.03F
NEW PHILLY     CLEAR     69  64  84 SE5       30.03S
$$




USA.gov is the U.S. government's official web portal to all federal, state and local government web resources and services.